AHK561 VVTS-WMKP

Flight info

Callsign AHK561
Flight time 1h 12m
Altitude 30000
Route BACHU W17 TUNPO W8 PQU R334 NUMDI/N0516F300 R334 KOS R588 RELIP A464 HTY A457 VAS
Aircraft B742/H-SDFHIRWXY/L

Departure

Time 2026-04-22 23:17
Airport Tan Son Nhat International Airport (VVTS)

Arrival

Time 2026-04-23 00:29
Airport Penang International Airport (WMKP)
Time Latitude Longitude Altitude Speed Heading
2026-04-22 22:47 10.80908 106.65966 37 ft 0 kts 186°
2026-04-22 23:07 10.80915 106.65966 36 ft 2 kts 179°
2026-04-22 23:07 10.80929 106.65963 36 ft 2 kts 154°
2026-04-22 23:07 10.80941 106.65954 36 ft 2 kts 131°
2026-04-22 23:08 10.80949 106.65941 36 ft 2 kts 109°
2026-04-22 23:08 10.80951 106.65926 36 ft 2 kts 94°
2026-04-22 23:08 10.80952 106.65912 35 ft 0 kts 95°
2026-04-22 23:08 10.80952 106.65910 35 ft 0 kts 95°
2026-04-22 23:11 10.80951 106.65923 36 ft 4 kts 96°
2026-04-22 23:11 10.80950 106.65971 36 ft 8 kts 63°
2026-04-22 23:12 10.81026 106.65994 37 ft 15 kts
2026-04-22 23:12 10.81157 106.66006 38 ft 21 kts
2026-04-22 23:12 10.81330 106.66021 34 ft 27 kts
2026-04-22 23:12 10.81532 106.66038 27 ft 29 kts
2026-04-22 23:13 10.81728 106.66060 31 ft 26 kts
2026-04-22 23:13 10.81867 106.66099 32 ft 18 kts 50°
2026-04-22 23:13 10.81922 106.66232 27 ft 22 kts 70°
2026-04-22 23:13 10.81976 106.66379 28 ft 22 kts 68°
2026-04-22 23:14 10.82031 106.66522 27 ft 21 kts 69°
2026-04-22 23:14 10.82084 106.66664 28 ft 20 kts 69°
2026-04-22 23:14 10.82130 106.66788 33 ft 17 kts 69°
2026-04-22 23:14 10.82172 106.66898 34 ft 16 kts 69°
2026-04-22 23:15 10.82220 106.67002 35 ft 14 kts 35°
2026-04-22 23:15 10.82307 106.66980 34 ft 13 kts 319°
2026-04-22 23:15 10.82344 106.66904 35 ft 11 kts 268°
2026-04-22 23:15 10.82326 106.66838 36 ft 8 kts 249°
2026-04-22 23:16 10.82293 106.66748 36 ft 31 kts 249°
2026-04-22 23:16 10.82122 106.66293 35 ft 104 kts 249°
2026-04-22 23:16 10.81783 106.65395 34 ft 165 kts 249°
2026-04-22 23:16 10.81354 106.64208 403 ft 183 kts 250°
2026-04-22 23:17 10.80967 106.63013 1140 ft 181 kts 250°
2026-04-22 23:17 10.80561 106.61710 1411 ft 209 kts 250°
2026-04-22 23:17 10.80090 106.60214 1614 ft 232 kts 248°
2026-04-22 23:17 10.79533 106.58626 1820 ft 243 kts 248°
2026-04-22 23:18 10.78936 106.56953 2034 ft 262 kts 248°
2026-04-22 23:18 10.78298 106.55167 2470 ft 273 kts 248°
2026-04-22 23:18 10.77646 106.53342 3127 ft 276 kts 248°
2026-04-22 23:18 10.76994 106.51518 3772 ft 279 kts 249°
2026-04-22 23:19 10.76323 106.49660 4418 ft 282 kts 249°
2026-04-22 23:19 10.75627 106.47791 5062 ft 285 kts 249°
2026-04-22 23:19 10.74928 106.45900 5697 ft 288 kts 250°
2026-04-22 23:19 10.74224 106.43979 6322 ft 292 kts 250°
2026-04-22 23:20 10.73519 106.42044 6947 ft 294 kts 250°
2026-04-22 23:20 10.72808 106.40093 7581 ft 296 kts 250°
2026-04-22 23:20 10.72101 106.38154 8175 ft 298 kts 249°
2026-04-22 23:20 10.71379 106.36175 8798 ft 300 kts 249°
2026-04-22 23:21 10.70653 106.34187 9368 ft 302 kts 249°
2026-04-22 23:21 10.69915 106.32165 9920 ft 306 kts 249°
2026-04-22 23:21 10.69163 106.30107 10290 ft 316 kts 249°
2026-04-22 23:21 10.68381 106.27966 10521 ft 332 kts 249°
2026-04-22 23:22 10.67555 106.25706 10748 ft 348 kts 249°
2026-04-22 23:22 10.66692 106.23344 10975 ft 364 kts 249°
2026-04-22 23:22 10.65797 106.20897 11198 ft 379 kts 249°
2026-04-22 23:22 10.64856 106.18328 11420 ft 394 kts 249°
2026-04-22 23:23 10.63892 106.15693 11665 ft 407 kts 249°
2026-04-22 23:23 10.62900 106.12981 12312 ft 407 kts 249°
2026-04-22 23:23 10.61915 106.10289 12937 ft 408 kts 249°
2026-04-22 23:23 10.60920 106.07569 13445 ft 412 kts 249°
2026-04-22 23:24 10.59922 106.04842 13981 ft 415 kts 249°
2026-04-22 23:24 10.58912 106.02084 14466 ft 419 kts 250°
2026-04-22 23:24 10.57888 105.99287 14977 ft 422 kts 250°
2026-04-22 23:24 10.56870 105.96501 15457 ft 425 kts 250°
2026-04-22 23:25 10.55838 105.93681 15942 ft 428 kts 250°
2026-04-22 23:25 10.54802 105.90849 16408 ft 431 kts 250°
2026-04-22 23:25 10.53756 105.87991 16879 ft 433 kts 250°
2026-04-22 23:25 10.52699 105.85106 17308 ft 437 kts 250°
2026-04-22 23:26 10.51635 105.82199 17739 ft 440 kts 250°
2026-04-22 23:26 10.50567 105.79278 18183 ft 442 kts 250°
2026-04-22 23:26 10.49503 105.76372 18580 ft 445 kts 250°
2026-04-22 23:26 10.48420 105.73416 18974 ft 448 kts 250°
2026-04-22 23:27 10.47333 105.70452 19384 ft 450 kts 250°
2026-04-22 23:27 10.46238 105.67464 19762 ft 453 kts 250°
2026-04-22 23:27 10.45137 105.64465 20150 ft 455 kts 249°
2026-04-22 23:27 10.44031 105.61452 20527 ft 457 kts 249°
2026-04-22 23:28 10.42917 105.58418 20860 ft 461 kts 249°
2026-04-22 23:28 10.41792 105.55353 21239 ft 462 kts 249°
2026-04-22 23:28 10.40665 105.52287 21574 ft 465 kts 249°
2026-04-22 23:28 10.39537 105.49219 21921 ft 467 kts 249°
2026-04-22 23:29 10.38400 105.46123 22261 ft 469 kts 249°
2026-04-22 23:29 10.37254 105.43006 22603 ft 472 kts 249°
2026-04-22 23:29 10.36111 105.39899 22913 ft 474 kts 249°
2026-04-22 23:29 10.34952 105.36751 23187 ft 477 kts 249°
2026-04-22 23:30 10.33785 105.33579 23477 ft 480 kts 249°
2026-04-22 23:30 10.32602 105.30365 23756 ft 483 kts 249°
2026-04-22 23:30 10.31436 105.27198 24022 ft 486 kts 249°
2026-04-22 23:30 10.30251 105.23981 24319 ft 487 kts 249°
2026-04-22 23:31 10.29058 105.20744 24581 ft 490 kts 249°
2026-04-22 23:31 10.27856 105.17484 24848 ft 492 kts 249°
2026-04-22 23:31 10.26666 105.14256 25104 ft 495 kts 249°
2026-04-22 23:31 10.25454 105.10969 25359 ft 497 kts 249°
2026-04-22 23:32 10.24241 105.07684 25600 ft 499 kts 249°
2026-04-22 23:32 10.23024 105.04386 25821 ft 502 kts 249°
2026-04-22 23:32 10.21789 105.01045 26067 ft 504 kts 250°
2026-04-22 23:32 10.20567 104.97736 26306 ft 505 kts 250°
2026-04-22 23:33 10.19330 104.94387 26512 ft 508 kts 250°
2026-04-22 23:33 10.18087 104.91028 26716 ft 510 kts 250°
2026-04-22 23:33 10.16839 104.87652 26913 ft 513 kts 250°
2026-04-22 23:33 10.15594 104.84283 27154 ft 514 kts 250°
2026-04-22 23:34 10.14338 104.80888 27438 ft 514 kts 250°
2026-04-22 23:34 10.13085 104.77503 27734 ft 514 kts 250°
2026-04-22 23:34 10.11824 104.74098 28056 ft 513 kts 250°
2026-04-22 23:34 10.10426 104.70753 28339 ft 513 kts 242°
2026-04-22 23:35 10.08517 104.67739 28566 ft 514 kts 233°
2026-04-22 23:35 10.06278 104.64910 28868 ft 513 kts 230°
2026-04-22 23:35 10.04011 104.62159 29188 ft 512 kts 230°
2026-04-22 23:35 10.01757 104.59341 29510 ft 512 kts 232°
2026-04-22 23:36 9.99579 104.56503 29766 ft 513 kts 233°
2026-04-22 23:36 9.97413 104.53590 29834 ft 518 kts 233°
2026-04-22 23:36 9.93094 104.47639 29843 ft 526 kts 234°
2026-04-22 23:37 9.88753 104.41608 29844 ft 532 kts 234°
2026-04-22 23:37 9.84384 104.35547 29843 ft 538 kts 234°
2026-04-22 23:38 9.79944 104.29399 29841 ft 542 kts 234°
2026-04-22 23:38 9.75470 104.23209 29842 ft 546 kts 234°
2026-04-22 23:39 9.70967 104.16980 29840 ft 548 kts 234°
2026-04-22 23:39 9.66463 104.10754 29844 ft 548 kts 234°
2026-04-22 23:40 9.61939 104.04503 29841 ft 548 kts 234°
2026-04-22 23:40 9.57450 103.98305 29839 ft 548 kts 234°
2026-04-22 23:41 9.52919 103.92052 29838 ft 549 kts 234°
2026-04-22 23:41 9.48409 103.85830 29836 ft 549 kts 234°
2026-04-22 23:42 9.43900 103.79612 29828 ft 550 kts 234°
2026-04-22 23:42 9.39345 103.73334 29825 ft 550 kts 234°
2026-04-22 23:43 9.34855 103.67149 29832 ft 549 kts 234°
2026-04-22 23:43 9.30326 103.60913 29839 ft 550 kts 234°
2026-04-22 23:44 9.25775 103.54652 29841 ft 550 kts 234°
2026-04-22 23:44 9.21260 103.48441 29839 ft 550 kts 234°
2026-04-22 23:45 9.16721 103.42200 29842 ft 551 kts 234°
2026-04-22 23:45 9.12164 103.35939 29841 ft 551 kts 234°
2026-04-22 23:46 9.07609 103.29683 29840 ft 551 kts 233°
2026-04-22 23:46 9.03077 103.23462 29841 ft 551 kts 233°
2026-04-22 23:47 8.98535 103.17230 29843 ft 552 kts 233°
2026-04-22 23:47 8.93990 103.10996 29841 ft 552 kts 233°
2026-04-22 23:48 8.89413 103.04723 29842 ft 551 kts 233°
2026-04-22 23:48 8.84880 102.98511 29843 ft 551 kts 233°
2026-04-22 23:49 8.80316 102.92261 29842 ft 551 kts 233°
2026-04-22 23:49 8.75779 102.86049 29843 ft 550 kts 233°
2026-04-22 23:50 8.71233 102.79829 29842 ft 550 kts 233°
2026-04-22 23:50 8.66704 102.73637 29842 ft 549 kts 233°
2026-04-22 23:51 8.62136 102.67393 29843 ft 550 kts 233°
2026-04-22 23:51 8.57612 102.61211 29842 ft 551 kts 233°
2026-04-22 23:52 8.53041 102.54968 29843 ft 550 kts 233°
2026-04-22 23:52 8.48492 102.48759 29842 ft 549 kts 233°
2026-04-22 23:53 8.43960 102.42576 29841 ft 550 kts 233°
2026-04-22 23:53 8.39403 102.36362 29841 ft 549 kts 233°
2026-04-22 23:54 8.34858 102.30193 29836 ft 550 kts 233°
2026-04-22 23:54 8.30269 102.23953 29832 ft 551 kts 233°
2026-04-22 23:55 8.25716 102.17748 29828 ft 551 kts 233°
2026-04-22 23:55 8.21160 102.11535 29829 ft 551 kts 233°
2026-04-22 23:56 8.16601 102.05325 29834 ft 551 kts 233°
2026-04-22 23:56 8.12037 101.99126 29842 ft 551 kts 233°
2026-04-22 23:57 8.07454 101.92918 29842 ft 552 kts 233°
2026-04-22 23:57 8.02854 101.86694 29843 ft 554 kts 233°
2026-04-22 23:58 7.98279 101.80499 29843 ft 553 kts 233°
2026-04-22 23:58 7.93703 101.74294 29842 ft 551 kts 233°
2026-04-22 23:59 7.89127 101.68085 29843 ft 551 kts 233°
2026-04-22 23:59 7.84546 101.61871 29843 ft 551 kts 233°
2026-04-23 00:00 7.77682 101.52566 29844 ft 552 kts 233°
2026-04-23 00:01 7.73084 101.46336 29843 ft 552 kts 233°
2026-04-23 00:01 7.68519 101.40153 29843 ft 549 kts 233°
2026-04-23 00:02 7.63952 101.33971 29842 ft 549 kts 233°
2026-04-23 00:02 7.59385 101.27792 29842 ft 550 kts 233°
2026-04-23 00:03 7.54806 101.21597 29845 ft 550 kts 233°
2026-04-23 00:03 7.50238 101.15422 29843 ft 549 kts 233°
2026-04-23 00:04 7.45682 101.09264 29844 ft 549 kts 233°
2026-04-23 00:04 7.41138 101.03125 29844 ft 549 kts 233°
2026-04-23 00:05 7.36549 100.96927 29844 ft 549 kts 233°
2026-04-23 00:05 7.32001 100.90788 29844 ft 549 kts 233°
2026-04-23 00:06 7.27424 100.84611 29845 ft 550 kts 233°
2026-04-23 00:06 7.22850 100.78442 29845 ft 549 kts 233°
2026-04-23 00:07 7.18260 100.72257 29847 ft 551 kts 233°
2026-04-23 00:07 7.13687 100.66093 29849 ft 552 kts 233°
2026-04-23 00:08 7.09101 100.59915 29852 ft 552 kts 233°
2026-04-23 00:08 7.04493 100.53709 29853 ft 553 kts 233°
2026-04-23 00:08 7.02181 100.50596 29592 ft 558 kts 233°
2026-04-23 00:09 6.99830 100.47478 28903 ft 560 kts 230°
2026-04-23 00:09 6.97245 100.44608 28224 ft 554 kts 225°
2026-04-23 00:09 6.94399 100.42020 27536 ft 547 kts 216°
2026-04-23 00:09 6.91178 100.40006 26850 ft 538 kts 204°
2026-04-23 00:10 6.87706 100.38672 26167 ft 529 kts 193°
2026-04-23 00:10 6.84090 100.38045 25483 ft 519 kts 181°
2026-04-23 00:10 6.80502 100.38115 24806 ft 510 kts 172°
2026-04-23 00:10 6.76998 100.38531 24134 ft 504 kts 171°
2026-04-23 00:11 6.73514 100.38951 23462 ft 500 kts 172°
2026-04-23 00:11 6.70069 100.39273 22800 ft 496 kts 174°
2026-04-23 00:11 6.66627 100.39507 22149 ft 492 kts 175°
2026-04-23 00:11 6.63220 100.39681 21520 ft 488 kts 176°
2026-04-23 00:12 6.59823 100.39824 20887 ft 485 kts 176°
2026-04-23 00:12 6.56472 100.39941 20255 ft 481 kts 177°
2026-04-23 00:12 6.53119 100.40005 19618 ft 478 kts 178°
2026-04-23 00:12 6.49796 100.40028 18979 ft 476 kts 178°
2026-04-23 00:13 6.46479 100.40030 18339 ft 473 kts 179°
2026-04-23 00:13 6.43199 100.40019 17701 ft 470 kts 179°
2026-04-23 00:13 6.39948 100.40006 17050 ft 466 kts 179°
2026-04-23 00:13 6.36702 100.39990 16395 ft 460 kts 179°
2026-04-23 00:14 6.33555 100.39967 15803 ft 452 kts 179°
2026-04-23 00:14 6.30407 100.39935 15278 ft 444 kts 179°
2026-04-23 00:14 6.27350 100.39899 14760 ft 435 kts 179°
2026-04-23 00:14 6.24351 100.39861 14242 ft 428 kts 179°
2026-04-23 00:15 6.21402 100.39792 13724 ft 421 kts 181°
2026-04-23 00:15 6.18457 100.39595 13197 ft 414 kts 184°
2026-04-23 00:15 6.15628 100.39306 12686 ft 408 kts 185°
2026-04-23 00:15 6.12802 100.38957 12165 ft 402 kts 186°
2026-04-23 00:16 6.10049 100.38587 11649 ft 397 kts 187°
2026-04-23 00:16 6.07352 100.38215 11110 ft 383 kts 187°
2026-04-23 00:16 6.04750 100.37857 10590 ft 369 kts 186°
2026-04-23 00:16 6.02226 100.37587 10065 ft 356 kts 185°
2026-04-23 00:17 5.99815 100.37324 9549 ft 346 kts 186°
2026-04-23 00:17 5.97467 100.37031 9026 ft 336 kts 187°
2026-04-23 00:17 5.95166 100.36716 8498 ft 327 kts 187°
2026-04-23 00:17 5.92948 100.36395 7976 ft 319 kts 187°
2026-04-23 00:18 5.90759 100.36067 7621 ft 315 kts 188°
2026-04-23 00:18 5.88597 100.35736 7355 ft 309 kts 188°
2026-04-23 00:18 5.86474 100.35406 7089 ft 303 kts 188°
2026-04-23 00:18 5.84412 100.35081 6980 ft 290 kts 188°
2026-04-23 00:19 5.82438 100.34771 6981 ft 288 kts 188°
2026-04-23 00:19 5.80401 100.34452 6697 ft 298 kts 188°
2026-04-23 00:19 5.78362 100.34130 6341 ft 298 kts 188°
2026-04-23 00:19 5.76316 100.33805 5977 ft 296 kts 188°
2026-04-23 00:20 5.74290 100.33482 5730 ft 289 kts 188°
2026-04-23 00:20 5.72314 100.33167 5508 ft 283 kts 188°
2026-04-23 00:20 5.70362 100.32855 5282 ft 280 kts 188°
2026-04-23 00:20 5.68424 100.32546 4960 ft 283 kts 188°
2026-04-23 00:21 5.66480 100.32235 4609 ft 284 kts 188°
2026-04-23 00:21 5.64525 100.31922 4262 ft 281 kts 188°
2026-04-23 00:21 5.62606 100.31615 4086 ft 273 kts 188°
2026-04-23 00:21 5.60750 100.31318 4037 ft 272 kts 188°
2026-04-23 00:22 5.58871 100.31017 4021 ft 267 kts 188°
2026-04-23 00:22 5.57089 100.30731 4018 ft 243 kts 188°
2026-04-23 00:22 5.55477 100.30473 4033 ft 229 kts 188°
2026-04-23 00:22 5.53951 100.30579 3972 ft 217 kts 154°
2026-04-23 00:23 5.52840 100.31562 3756 ft 215 kts 115°
2026-04-23 00:23 5.52448 100.32986 3555 ft 212 kts 99°
2026-04-23 00:23 5.52172 100.34438 3333 ft 209 kts 114°
2026-04-23 00:23 5.51513 100.35723 3145 ft 210 kts 119°
2026-04-23 00:24 5.50779 100.36993 2937 ft 209 kts 120°
2026-04-23 00:24 5.50047 100.38252 2729 ft 208 kts 120°
2026-04-23 00:24 5.49322 100.39501 2579 ft 205 kts 120°
2026-04-23 00:24 5.48281 100.40443 2543 ft 208 kts 160°
2026-04-23 00:25 5.46845 100.40536 2546 ft 210 kts 186°
2026-04-23 00:25 5.45374 100.40342 2538 ft 210 kts 186°
2026-04-23 00:25 5.43941 100.40036 2526 ft 211 kts 208°
2026-04-23 00:25 5.42732 100.39199 2552 ft 210 kts 216°
2026-04-23 00:26 5.41578 100.38311 2553 ft 209 kts 218°
2026-04-23 00:26 5.40478 100.37389 2547 ft 198 kts 220°
2026-04-23 00:26 5.39432 100.36471 2316 ft 198 kts 221°
2026-04-23 00:26 5.38421 100.35564 2050 ft 191 kts 221°
2026-04-23 00:27 5.37466 100.34703 1798 ft 178 kts 221°
2026-04-23 00:27 5.36568 100.33890 1556 ft 170 kts 221°
2026-04-23 00:27 5.35691 100.33097 1337 ft 168 kts 221°
2026-04-23 00:27 5.34824 100.32312 1119 ft 167 kts 221°
2026-04-23 00:28 5.33964 100.31519 878 ft 167 kts 223°
2026-04-23 00:28 5.33112 100.30753 659 ft 163 kts 220°
2026-04-23 00:28 5.32262 100.29999 424 ft 164 kts 222°
2026-04-23 00:28 5.31411 100.29223 187 ft 163 kts 222°
2026-04-23 00:29 5.30583 100.28468 28 ft 159 kts 222°
2026-04-23 00:29 5.29870 100.27821 26 ft 106 kts 222°
2026-04-23 00:29 5.29415 100.27409 21 ft 81 kts 222°
2026-04-23 00:29 5.29097 100.27122 26 ft 38 kts 218°
2026-04-23 00:30 5.28889 100.27084 26 ft 22 kts 171°
2026-04-23 00:30 5.28792 100.27098 25 ft 10 kts 169°
2026-04-23 00:30 5.28754 100.27118 25 ft 3 kts 141°
2026-04-23 00:30 5.28742 100.27129 25 ft 1 kts 136°
2026-04-23 00:31 5.28731 100.27139 25 ft 2 kts 134°
2026-04-23 00:31 5.28723 100.27148 26 ft 0 kts 133°
2026-04-23 00:31 5.28719 100.27152 26 ft 0 kts 133°